Humidity-temperature Sensor

Selected Measurement Type: Relative Humidity

 
Relative Humidity [%]     6 entries per hour
Showing data from 10/14/2015 (00:00:00 Z) to 10/11/2015 (00:01:00 Z)
Previous Next [ Day | 3-Days | 7-Days ]
First Last
Prev [ Day | 3-Days | 7-Days ] Next
First Last

Start Time:     :
End Time:     :     
Time (in GMT) :00 :50 :40 :30 :20 :10
Previous Next [ Day | 3-Days | 7-Days ]
First Last
Prev [ Day | 3-Days | 7-Days ] Next
First Last


123 => good data
MM => data is determined as missing
-- => data not received/configured
Back to Top Back to Top
10/14/2015 00:00 to 23:10 75.08 75.53 74.82 74.90 75.18 75.94
10/13/2015 23:00 to 22:10 76.20 75.66 75.40 74.66 74.36 73.88
10/13/2015 22:00 to 21:10 72.56 73.82 72.72 74.77 74.43 74.43
10/13/2015 21:00 to 20:10 72.41 73.76 75.51 73.97 77.20 77.37
10/13/2015 20:00 to 19:10 76.87 74.92 74.90 75.79 75.64 77.17
10/13/2015 19:00 to 18:10 78.43 77.28 77.22 77.09 76.59 75.31
10/13/2015 18:00 to 17:10 75.79 76.46 75.94 74.97 74.86 75.59
10/13/2015 17:00 to 16:10 -- -- -- -- -- --
10/13/2015 16:00 to 15:10 75.75 77.74 76.59 79.10 77.78 77.00
10/13/2015 15:00 to 14:10 76.63 76.24 75.79 78.45 76.63 76.48
10/13/2015 14:00 to 13:10 79.73 82.33 79.64 78.34 78.93 78.80
10/13/2015 13:00 to 12:10 78.11 75.23 74.77 74.69 75.94 80.68
10/13/2015 12:00 to 11:10 80.83 88.71 89.56 90.79 90.49 89.47
10/13/2015 11:00 to 10:10 88.80 88.04 84.49 85.10 84.95 87.17
10/13/2015 10:00 to 9:10 82.56 82.22 81.14 80.21 80.38 80.14
10/13/2015 09:00 to 8:10 81.68 81.98 83.00 82.61 81.66 81.53
10/13/2015 08:00 to 7:10 81.72 80.85 80.94 80.59 82.22 81.29
10/13/2015 07:00 to 6:10 80.64 79.82 79.69 78.76 80.38 79.75
10/13/2015 06:00 to 5:10 79.08 80.57 81.59 81.16 80.42 79.77
10/13/2015 05:00 to 4:10 79.66 78.63 80.01 80.40 81.14 83.13
10/13/2015 04:00 to 3:10 81.85 82.15 81.29 83.67 84.53 84.14
10/13/2015 03:00 to 2:10 83.37 82.24 82.95 84.86 86.18 88.28
10/13/2015 02:00 to 1:10 91.59 91.76 90.81 84.90 76.33 76.16
10/13/2015 01:00 to 0:10 76.70 75.38 75.62 75.83 77.05 76.55
10/13/2015 00:00 to 23:10 76.24 77.09 77.56 77.24 76.72 76.03
10/12/2015 23:00 to 22:10 75.70 75.44 76.07 76.40 75.16 75.94
10/12/2015 22:00 to 21:10 77.24 77.09 76.22 76.42 75.77 74.99
10/12/2015 21:00 to 20:10 75.42 76.29 75.98 76.22 75.53 74.45
10/12/2015 20:00 to 19:10 74.73 75.18 73.02 74.34 74.75 74.43
10/12/2015 19:00 to 18:10 75.25 73.91 72.93 73.28 74.90 75.12
10/12/2015 18:00 to 17:10 75.01 73.67 72.63 73.63 74.82 73.80
10/12/2015 17:00 to 16:10 73.26 72.63 71.79 70.81 71.89 73.63
10/12/2015 16:00 to 15:10 72.28 72.74 73.86 74.86 73.88 74.86
10/12/2015 15:00 to 14:10 74.86 74.88 75.59 76.42 77.56 78.24
10/12/2015 14:00 to 13:10 77.78 77.02 77.22 76.20 77.05 76.61
10/12/2015 13:00 to 12:10 76.61 76.63 77.00 76.61 76.57 76.37
10/12/2015 12:00 to 11:10 76.76 75.68 76.66 75.77 75.44 78.45
10/12/2015 11:00 to 10:10 76.81 77.78 77.87 76.55 75.51 75.94
10/12/2015 10:00 to 9:10 77.67 76.09 75.25 74.47 74.62 74.25
10/12/2015 09:00 to 8:10 75.49 75.77 74.82 76.42 75.34 77.02
10/12/2015 08:00 to 7:10 75.70 76.09 75.70 76.16 74.71 74.36
10/12/2015 07:00 to 6:10 74.51 73.30 74.64 74.56 73.56 73.37
10/12/2015 06:00 to 5:10 72.67 72.74 72.91 70.92 71.92 72.72
10/12/2015 05:00 to 4:10 71.20 71.50 71.29 72.89 71.72 73.06
10/12/2015 04:00 to 3:10 72.13 71.74 72.35 73.52 73.37 72.46
10/12/2015 03:00 to 2:10 75.85 77.17 75.94 74.60 74.69 73.02
10/12/2015 02:00 to 1:10 73.24 72.69 72.30 72.33 72.07 72.78
10/12/2015 01:00 to 0:10 72.48 72.11 72.20 72.85 71.66 71.96
10/12/2015 00:00 to 23:10 71.46 72.28 71.83 71.03 71.24 71.37
10/11/2015 23:00 to 22:10 70.55 70.70 70.70 70.92 70.08 70.55
10/11/2015 22:00 to 21:10 70.57 69.79 68.69 73.32 72.59 72.87
10/11/2015 21:00 to 20:10 72.09 72.35 72.56 72.26 70.77 70.70
10/11/2015 20:00 to 19:10 69.30 70.72 69.64 71.53 70.96 71.09
10/11/2015 19:00 to 18:10 70.23 71.79 72.13 71.61 73.04 73.91
10/11/2015 18:00 to 17:10 78.82 79.21 78.63 78.06 78.80 79.17
10/11/2015 17:00 to 16:10 79.47 80.10 80.21 82.69 80.36 76.57
10/11/2015 16:00 to 15:10 76.66 75.40 74.95 76.03 75.55 74.43
10/11/2015 15:00 to 14:10 74.56 75.55 75.64 74.95 76.89 77.46
10/11/2015 14:00 to 13:10 76.35 75.81 75.10 78.21 76.55 77.30
10/11/2015 13:00 to 12:10 78.13 77.52 75.10 74.19 74.90 75.47
10/11/2015 12:00 to 11:10 75.40 74.19 78.08 78.26 77.61 76.35
10/11/2015 11:00 to 10:10 75.79 77.05 77.07 79.25 77.80 78.88
10/11/2015 10:00 to 9:10 79.04 79.30 79.23 78.47 78.08 77.52
10/11/2015 09:00 to 8:10 78.73 80.51 85.55 90.14 91.81 89.21
10/11/2015 08:00 to 7:10 86.14 86.01 86.50 86.48 85.79 84.32
10/11/2015 07:00 to 6:10 82.78 85.77 84.60 85.25 83.30 77.65
10/11/2015 06:00 to 5:10 77.63 78.65 78.34 77.28 78.04 77.67
10/11/2015 05:00 to 4:10 76.27 77.43 77.52 77.13 77.07 76.40
10/11/2015 04:00 to 3:10 76.11 76.35 75.57 75.31 75.83 75.83
10/11/2015 03:00 to 2:10 76.33 75.55 73.71 73.26 73.82 73.71
10/11/2015 02:00 to 1:10 72.09 72.76 74.04 73.32 74.90 76.55
10/11/2015 01:00 to 0:10 75.55 76.63 75.77 75.94 76.33 77.26